TimeMST,TemperatureF,Dew PointF,Humidity,Sea Level PressureIn,VisibilityMPH,Wind Direction,Wind SpeedMPH,Gust SpeedMPH,PrecipitationIn,Events,Conditions,WindDirDegrees,DateUTC
12:53 AM,32.0,21.9,66,29.94,10.0,NW,11.5,-,N/A,,Clear,320,2013-02-04 07:53:00
1:53 AM,30.9,21.9,69,29.97,10.0,NW,11.5,-,N/A,,Clear,310,2013-02-04 08:53:00
3:53 AM,26.1,19.0,75,29.99,10.0,WNW,6.9,-,N/A,,Clear,290,2013-02-04 10:53:00
4:53 AM,28.0,19.0,69,30.01,10.0,NW,9.2,-,N/A,,Clear,320,2013-02-04 11:53:00
5:53 AM,25.0,18.0,75,30.02,10.0,WNW,6.9,-,N/A,,Clear,290,2013-02-04 12:53:00
6:53 AM,25.0,18.0,75,30.04,10.0,West,5.8,-,N/A,,Clear,280,2013-02-04 13:53:00
7:53 AM,30.0,19.9,66,30.02,10.0,WNW,6.9,-,N/A,,Clear,290,2013-02-04 14:53:00
8:53 AM,36.0,23.0,59,30.01,10.0,West,4.6,-,N/A,,Clear,260,2013-02-04 15:53:00
9:53 AM,43.0,21.9,43,29.99,10.0,SW,5.8,-,N/A,,Clear,230,2013-02-04 16:53:00
10:53 AM,48.0,21.9,36,29.97,10.0,SSW,9.2,-,N/A,,Clear,210,2013-02-04 17:53:00
11:53 AM,51.1,19.9,29,29.93,10.0,WSW,12.7,-,N/A,,Clear,240,2013-02-04 18:53:00
12:53 PM,53.1,18.0,25,29.89,10.0,West,10.4,-,N/A,,Clear,280,2013-02-04 19:53:00
1:53 PM,55.0,16.0,22,29.86,10.0,West,11.5,18.4,N/A,,Clear,270,2013-02-04 20:53:00
2:53 PM,55.9,15.1,20,29.84,10.0,SW,9.2,-,N/A,,Clear,230,2013-02-04 21:53:00
3:53 PM,55.0,12.9,19,29.83,10.0,West,8.1,-,N/A,,Clear,280,2013-02-04 22:53:00
4:53 PM,51.1,18.0,27,29.84,10.0,West,3.5,-,N/A,,Clear,270,2013-02-04 23:53:00
5:53 PM,42.1,19.0,40,29.89,10.0,WNW,3.5,-,N/A,,Clear,290,2013-02-05 00:53:00
6:53 PM,41.0,19.0,41,29.91,10.0,NW,5.8,-,N/A,,Clear,310,2013-02-05 01:53:00
7:53 PM,37.9,19.0,47,29.92,10.0,WNW,11.5,-,N/A,,Clear,300,2013-02-05 02:53:00
8:53 PM,37.9,19.9,48,29.92,10.0,NW,8.1,-,N/A,,Clear,320,2013-02-05 03:53:00
9:53 PM,35.1,21.0,57,29.91,10.0,NW,9.2,-,N/A,,Clear,310,2013-02-05 04:53:00
10:53 PM,28.9,21.0,72,29.93,10.0,West,5.8,-,N/A,,Clear,270,2013-02-05 05:53:00
11:53 PM,28.9,21.0,72,29.93,10.0,NW,3.5,-,N/A,,Clear,320,2013-02-05 06:53:00